Time,TemperatureF,DewpointF,PressureIn,WindDirection,WindDirectionDegrees,WindSpeedMPH,WindSpeedGustMPH,Humidity,HourlyPrecipIn,Conditions,Clouds,dailyrainin,SoftwareType,DateUTC
2013-06-19 06:39:00,54.0,48.6,29.28,ESE,113,0.0,0.0,82,0.00,,,0.00,Wunderground v.1.15,2013-06-19 10:39:00,
2013-06-19 06:44:00,54.4,49.0,29.28,ESE,113,0.0,0.0,82,0.00,,,0.00,Wunderground v.1.15,2013-06-19 10:44:00,
2013-06-19 06:49:00,54.6,48.9,29.29,ESE,113,0.0,0.0,81,0.00,,,0.00,Wunderground v.1.15,2013-06-19 10:49:00,
2013-06-19 06:54:00,55.0,49.3,29.29,ESE,113,0.0,0.0,81,0.00,,,0.00,Wunderground v.1.15,2013-06-19 10:54:00,
2013-06-19 06:59:00,55.2,49.5,29.29,ESE,113,0.0,0.0,81,0.00,,,0.00,Wunderground v.1.15,2013-06-19 10:59:00,
2013-06-19 07:04:00,55.4,49.3,29.30,SSE,155,0.0,1.0,80,0.00,,,0.00,Wunderground v.1.15,2013-06-19 11:04:00,
2013-06-19 07:14:00,55.8,49.4,29.30,South,169,0.0,5.0,79,0.00,,,0.00,Wunderground v.1.15,2013-06-19 11:14:00,
2013-06-19 07:19:00,55.8,49.7,29.30,SSE,165,1.0,1.0,80,0.00,,,0.00,Wunderground v.1.15,2013-06-19 11:19:00,
2013-06-19 07:24:00,55.9,49.5,29.30,SSE,150,1.0,1.0,79,0.00,,,0.00,Wunderground v.1.15,2013-06-19 11:24:00,
2013-06-19 07:29:00,56.2,49.8,29.30,SE,130,0.0,2.0,79,0.00,,,0.00,Wunderground v.1.15,2013-06-19 11:29:00,
2013-06-19 07:34:00,56.5,50.4,29.30,SE,143,1.0,2.0,80,0.00,,,0.00,Wunderground v.1.15,2013-06-19 11:34:00,
2013-06-19 07:39:00,56.8,50.4,29.30,ESE,113,1.0,1.0,79,0.00,,,0.00,Wunderground v.1.15,2013-06-19 11:39:00,
2013-06-19 07:49:00,56.6,49.1,29.31,SSE,167,2.0,2.0,76,0.00,,,0.00,Wunderground v.1.15,2013-06-19 11:49:00,
2013-06-19 07:54:00,56.9,50.1,29.31,SSE,163,1.0,2.0,78,0.00,,,0.00,Wunderground v.1.15,2013-06-19 11:54:00,
2013-06-19 07:59:00,56.9,49.8,29.31,SE,131,1.0,1.0,77,0.00,,,0.00,Wunderground v.1.15,2013-06-19 11:59:00,
2013-06-19 08:04:00,57.1,49.6,29.31,SE,143,1.0,2.0,76,0.00,,,0.00,Wunderground v.1.15,2013-06-19 12:04:00,
2013-06-19 08:09:00,57.0,49.2,29.31,SE,125,1.0,4.0,75,0.00,,,0.00,Wunderground v.1.15,2013-06-19 12:09:00,
2013-06-19 08:19:00,57.1,49.6,29.31,ESE,120,4.0,4.0,76,0.00,,,0.00,Wunderground v.1.15,2013-06-19 12:19:00,
2013-06-19 08:24:00,57.2,49.0,29.31,ESE,117,4.0,6.0,74,0.00,,,0.00,Wunderground v.1.15,2013-06-19 12:24:00,
2013-06-19 08:29:00,57.1,48.9,29.32,ESE,113,5.0,5.0,74,0.00,,,0.00,Wunderground v.1.15,2013-06-19 12:29:00,
2013-06-19 08:34:00,57.5,49.3,29.32,ESE,121,4.0,5.0,74,0.00,,,0.00,Wunderground v.1.15,2013-06-19 12:34:00,
2013-06-19 08:39:00,57.8,49.2,29.31,SSE,156,2.0,2.0,73,0.00,,,0.00,Wunderground v.1.15,2013-06-19 12:39:00,
2013-06-19 08:44:00,58.2,50.3,29.31,ESE,116,1.0,4.0,75,0.00,,,0.00,Wunderground v.1.15,2013-06-19 12:44:00,
2013-06-19 08:50:00,58.3,48.9,29.31,ESE,118,2.0,2.0,71,0.00,,,0.00,Wunderground v.1.15,2013-06-19 12:50:00,
2013-06-19 08:55:00,58.2,48.8,29.32,ESE,108,3.0,6.0,71,0.00,,,0.00,Wunderground v.1.15,2013-06-19 12:55:00,
2013-06-19 09:00:00,58.4,49.0,29.32,ENE,78,5.0,5.0,71,0.00,,,0.00,Wunderground v.1.15,2013-06-19 13:00:00,
2013-06-19 09:05:00,58.7,48.9,29.32,ESE,117,5.0,5.0,70,0.00,,,0.00,Wunderground v.1.15,2013-06-19 13:05:00,
2013-06-19 09:10:00,58.9,48.7,29.33,SE,125,3.0,6.0,69,0.00,,,0.00,Wunderground v.1.15,2013-06-19 13:10:00,
2013-06-19 09:15:00,59.1,48.9,29.33,SSE,160,2.0,6.0,69,0.00,,,0.00,Wunderground v.1.15,2013-06-19 13:15:00,
2013-06-19 09:25:00,60.5,51.4,29.33,ENE,78,2.0,3.0,72,0.00,,,0.00,Wunderground v.1.15,2013-06-19 13:25:00,
2013-06-19 09:30:00,61.1,50.1,29.33,ESE,111,1.0,1.0,67,0.00,,,0.00,Wunderground v.1.15,2013-06-19 13:30:00,
2013-06-19 09:35:00,60.9,49.9,29.33,ENE,70,2.0,2.0,67,0.00,,,0.00,Wunderground v.1.15,2013-06-19 13:35:00,
2013-06-19 09:40:00,61.8,50.3,29.33,ESE,122,3.0,6.0,66,0.00,,,0.00,Wunderground v.1.15,2013-06-19 13:40:00,
2013-06-19 09:45:00,60.7,49.7,29.33,SE,124,3.0,6.0,67,0.00,,,0.00,Wunderground v.1.15,2013-06-19 13:45:00,
2013-06-19 09:55:00,60.7,51.6,29.33,East,99,2.0,2.0,72,0.00,,,0.00,Wunderground v.1.15,2013-06-19 13:55:00,
2013-06-19 10:00:00,60.4,50.6,29.33,SE,143,2.0,7.0,70,0.00,,,0.00,Wunderground v.1.15,2013-06-19 14:00:00,
2013-06-19 10:05:00,60.1,51.0,29.33,ESE,117,3.0,7.0,72,0.00,,,0.00,Wunderground v.1.15,2013-06-19 14:05:00,
2013-06-19 10:10:00,61.6,50.9,29.33,East,86,2.0,2.0,68,0.00,,,0.00,Wunderground v.1.15,2013-06-19 14:10:00,
2013-06-19 10:15:00,62.6,52.3,29.33,NE,55,2.0,2.0,69,0.00,,,0.00,Wunderground v.1.15,2013-06-19 14:15:00,
2013-06-19 10:20:00,63.1,52.4,29.33,East,95,2.0,2.0,68,0.00,,,0.00,Wunderground v.1.15,2013-06-19 14:20:00,
2013-06-19 10:29:00,62.2,51.9,29.33,NE,51,3.0,3.0,69,0.00,,,0.00,Wunderground v.1.15,2013-06-19 14:29:00,
2013-06-19 10:34:00,62.7,51.6,29.33,SE,127,3.0,11.0,67,0.00,,,0.00,Wunderground v.1.15,2013-06-19 14:34:00,
2013-06-19 10:39:00,61.1,50.1,29.33,ENE,70,4.0,4.0,67,0.00,,,0.00,Wunderground v.1.15,2013-06-19 14:39:00,
2013-06-19 10:44:00,61.9,50.8,29.33,ESE,115,3.0,4.0,67,0.00,,,0.00,Wunderground v.1.15,2013-06-19 14:44:00,
2013-06-19 10:49:00,61.6,50.5,29.33,East,79,3.0,3.0,67,0.00,,,0.00,Wunderground v.1.15,2013-06-19 14:49:00,
2013-06-19 10:59:00,62.6,50.7,29.33,ESE,122,2.0,2.0,65,0.00,,,0.00,Wunderground v.1.15,2013-06-19 14:59:00,
2013-06-19 11:04:00,63.9,52.7,29.33,ENE,59,3.0,3.0,67,0.00,,,0.00,Wunderground v.1.15,2013-06-19 15:04:00,
2013-06-19 11:09:00,64.0,50.3,29.34,ESE,117,3.0,8.0,61,0.00,,,0.00,Wunderground v.1.15,2013-06-19 15:09:00,
2013-06-19 11:14:00,63.1,52.4,29.34,ENE,57,4.0,8.0,68,0.00,,,0.00,Wunderground v.1.15,2013-06-19 15:14:00,
2013-06-19 11:19:00,64.2,51.8,29.34,NE,48,3.0,3.0,64,0.00,,,0.00,Wunderground v.1.15,2013-06-19 15:19:00,
2013-06-19 11:24:00,63.2,50.8,29.34,ENE,71,3.0,3.0,64,0.00,,,0.00,Wunderground v.1.15,2013-06-19 15:24:00,
2013-06-19 11:34:00,62.7,51.6,29.34,ENE,63,2.0,5.0,67,0.00,,,0.00,Wunderground v.1.15,2013-06-19 15:34:00,
2013-06-19 11:39:00,63.8,51.4,29.34,ENE,63,2.0,4.0,64,0.00,,,0.00,Wunderground v.1.15,2013-06-19 15:39:00,
2013-06-19 11:44:00,63.6,50.3,29.34,ESE,115,4.0,4.0,62,0.00,,,0.00,Wunderground v.1.15,2013-06-19 15:44:00,
2013-06-19 11:49:00,62.3,50.4,29.34,ESE,115,4.0,4.0,65,0.00,,,0.00,Wunderground v.1.15,2013-06-19 15:49:00,
2013-06-19 11:54:00,61.5,50.4,29.34,SE,126,4.0,9.0,67,0.00,,,0.00,Wunderground v.1.15,2013-06-19 15:54:00,
2013-06-19 12:04:00,61.4,49.9,29.33,ESE,106,4.0,5.0,66,0.00,,,0.00,Wunderground v.1.15,2013-06-19 16:04:00,
2013-06-19 12:09:00,62.0,50.9,29.33,NE,44,3.0,6.0,67,0.00,,,0.00,Wunderground v.1.15,2013-06-19 16:09:00,
2013-06-19 12:14:00,63.1,51.6,29.34,ENE,70,4.0,6.0,66,0.00,,,0.00,Wunderground v.1.15,2013-06-19 16:14:00,
2013-06-19 12:19:00,63.1,51.1,29.34,ENE,71,4.0,7.0,65,0.00,,,0.00,Wunderground v.1.15,2013-06-19 16:19:00,
2013-06-19 12:24:00,63.1,50.7,29.34,ESE,110,5.0,7.0,64,0.00,,,0.00,Wunderground v.1.15,2013-06-19 16:24:00,
2013-06-19 12:29:00,62.0,50.1,29.34,SE,136,6.0,7.0,65,0.00,,,0.00,Wunderground v.1.15,2013-06-19 16:29:00,
2013-06-19 12:35:00,61.7,50.2,29.34,SE,135,8.0,11.0,66,0.00,,,0.00,Wunderground v.1.15,2013-06-19 16:35:00,
2013-06-19 12:40:00,61.7,49.4,29.34,ESE,107,7.0,7.0,64,0.00,,,0.00,Wunderground v.1.15,2013-06-19 16:40:00,
2013-06-19 12:45:00,62.0,49.3,29.34,NE,49,6.0,7.0,63,0.00,,,0.00,Wunderground v.1.15,2013-06-19 16:45:00,
2013-06-19 12:50:00,64.2,49.6,29.34,ENE,76,5.0,7.0,59,0.00,,,0.00,Wunderground v.1.15,2013-06-19 16:50:00,
2013-06-19 12:55:00,64.6,48.5,29.34,ESE,107,4.0,7.0,56,0.00,,,0.00,Wunderground v.1.15,2013-06-19 16:55:00,
2013-06-19 13:00:00,64.3,47.8,29.34,ESE,105,4.0,8.0,55,0.00,,,0.00,Wunderground v.1.15,2013-06-19 17:00:00,
2013-06-19 13:10:00,63.2,46.3,29.34,SE,144,3.0,3.0,54,0.00,,,0.00,Wunderground v.1.15,2013-06-19 17:10:00,
2013-06-19 13:15:00,62.6,47.1,29.34,ENE,76,4.0,4.0,57,0.00,,,0.00,Wunderground v.1.15,2013-06-19 17:15:00,
2013-06-19 13:20:00,62.8,46.4,29.34,SE,134,3.0,3.0,55,0.00,,,0.00,Wunderground v.1.15,2013-06-19 17:20:00,
2013-06-19 13:25:00,63.2,47.2,29.34,East,98,4.0,6.0,56,0.00,,,0.00,Wunderground v.1.15,2013-06-19 17:25:00,
2013-06-19 13:30:00,62.9,46.0,29.33,ESE,121,3.0,3.0,54,0.00,,,0.00,Wunderground v.1.15,2013-06-19 17:30:00,
2013-06-19 13:39:00,62.4,45.5,29.34,East,92,6.0,6.0,54,0.00,,,0.00,Wunderground v.1.15,2013-06-19 17:39:00,
2013-06-19 13:44:00,62.1,46.2,29.34,SE,129,6.0,7.0,56,0.00,,,0.00,Wunderground v.1.15,2013-06-19 17:44:00,
2013-06-19 13:49:00,62.2,46.8,29.33,ESE,119,4.0,4.0,57,0.00,,,0.00,Wunderground v.1.15,2013-06-19 17:49:00,
2013-06-19 13:54:00,63.2,47.2,29.34,ESE,116,4.0,4.0,56,0.00,,,0.00,Wunderground v.1.15,2013-06-19 17:54:00,
2013-06-19 13:59:00,63.2,45.8,29.34,NE,49,5.0,6.0,53,0.00,,,0.00,Wunderground v.1.15,2013-06-19 17:59:00,
2013-06-19 14:04:00,64.3,45.3,29.34,ENE,61,3.0,6.0,50,0.00,,,0.00,Wunderground v.1.15,2013-06-19 18:04:00,
2013-06-19 14:14:00,64.8,46.2,29.34,ENE,72,4.0,4.0,51,0.00,,,0.00,Wunderground v.1.15,2013-06-19 18:14:00,
2013-06-19 14:19:00,63.6,44.1,29.34,ESE,119,4.0,5.0,49,0.00,,,0.00,Wunderground v.1.15,2013-06-19 18:19:00,
2013-06-19 14:24:00,64.4,45.9,29.34,NE,34,3.0,5.0,51,0.00,,,0.00,Wunderground v.1.15,2013-06-19 18:24:00,
2013-06-19 14:29:00,66.0,47.3,29.34,NE,34,2.0,2.0,51,0.00,,,0.00,Wunderground v.1.15,2013-06-19 18:29:00,
2013-06-19 14:34:00,67.1,45.6,29.34,NE,47,2.0,6.0,46,0.00,,,0.00,Wunderground v.1.15,2013-06-19 18:34:00,
2013-06-19 14:44:00,66.1,44.1,29.34,ESE,117,4.0,8.0,45,0.00,,,0.00,Wunderground v.1.15,2013-06-19 18:44:00,
2013-06-19 14:49:00,64.4,42.6,29.34,NE,47,4.0,4.0,45,0.00,,,0.00,Wunderground v.1.15,2013-06-19 18:49:00,
2013-06-19 14:54:00,63.9,43.3,29.34,ESE,111,4.0,4.0,47,0.00,,,0.00,Wunderground v.1.15,2013-06-19 18:54:00,
2013-06-19 14:59:00,63.7,45.7,29.33,ESE,120,3.0,4.0,52,0.00,,,0.00,Wunderground v.1.15,2013-06-19 18:59:00,
2013-06-19 15:04:00,63.8,44.3,29.33,NE,36,3.0,4.0,49,0.00,,,0.00,Wunderground v.1.15,2013-06-19 19:04:00,
2013-06-19 15:09:00,65.2,43.9,29.34,NE,44,3.0,3.0,46,0.00,,,0.00,Wunderground v.1.15,2013-06-19 19:09:00,
2013-06-19 15:19:00,65.9,42.1,29.34,ESE,115,3.0,3.0,42,0.00,,,0.00,Wunderground v.1.15,2013-06-19 19:19:00,
2013-06-19 15:24:00,64.3,42.5,29.33,SE,124,3.0,4.0,45,0.00,,,0.00,Wunderground v.1.15,2013-06-19 19:24:00,
2013-06-19 15:29:00,63.4,42.2,29.33,East,98,3.0,3.0,46,0.00,,,0.00,Wunderground v.1.15,2013-06-19 19:29:00,
2013-06-19 15:34:00,63.2,42.1,29.33,ESE,123,4.0,4.0,46,0.00,,,0.00,Wunderground v.1.15,2013-06-19 19:34:00,
2013-06-19 15:39:00,63.3,43.3,29.33,ENE,62,5.0,5.0,48,0.00,,,0.00,Wunderground v.1.15,2013-06-19 19:39:00,
2013-06-19 15:45:00,63.0,43.0,29.32,ESE,120,6.0,6.0,48,0.00,,,0.00,Wunderground v.1.15,2013-06-19 19:45:00,
2013-06-19 15:50:00,63.3,43.8,29.32,East,98,3.0,3.0,49,0.00,,,0.00,Wunderground v.1.15,2013-06-19 19:50:00,
2013-06-19 15:55:00,64.7,43.4,29.32,ENE,69,2.0,3.0,46,0.00,,,0.00,Wunderground v.1.15,2013-06-19 19:55:00,
2013-06-19 16:00:00,65.7,42.6,29.32,NNE,27,3.0,3.0,43,0.00,,,0.00,Wunderground v.1.15,2013-06-19 20:00:00,
2013-06-19 16:05:00,67.1,44.4,29.32,North,355,2.0,3.0,44,0.00,,,0.00,Wunderground v.1.15,2013-06-19 20:05:00,
2013-06-19 16:10:00,67.2,43.3,29.32,NE,42,0.0,0.0,42,0.00,,,0.00,Wunderground v.1.15,2013-06-19 20:10:00,
2013-06-19 16:20:00,64.6,42.8,29.32,ESE,109,2.0,2.0,45,0.00,,,0.00,Wunderground v.1.15,2013-06-19 20:20:00,
2013-06-19 16:25:00,63.9,42.1,29.32,ESE,115,3.0,3.0,45,0.00,,,0.00,Wunderground v.1.15,2013-06-19 20:25:00,
2013-06-19 16:30:00,64.8,42.9,29.32,ESE,115,2.0,2.0,45,0.00,,,0.00,Wunderground v.1.15,2013-06-19 20:30:00,
2013-06-19 16:35:00,64.6,42.2,29.32,ESE,115,0.0,2.0,44,0.00,,,0.00,Wunderground v.1.15,2013-06-19 20:35:00,
2013-06-19 16:40:00,65.1,42.6,29.32,East,90,1.0,1.0,44,0.00,,,0.00,Wunderground v.1.15,2013-06-19 20:40:00,
2013-06-19 16:45:00,64.9,43.0,29.32,East,91,1.0,1.0,45,0.00,,,0.00,Wunderground v.1.15,2013-06-19 20:45:00,
2013-06-19 16:55:00,65.6,43.7,29.31,ENE,77,1.0,2.0,45,0.00,,,0.00,Wunderground v.1.15,2013-06-19 20:55:00,
2013-06-19 17:00:00,67.0,44.4,29.31,ENE,71,1.0,1.0,44,0.00,,,0.00,Wunderground v.1.15,2013-06-19 21:00:00,
2013-06-19 17:05:00,68.2,43.6,29.31,ENE,71,0.0,1.0,41,0.00,,,0.00,Wunderground v.1.15,2013-06-19 21:05:00,
2013-06-19 17:14:00,65.5,42.4,29.31,ESE,119,1.0,1.0,43,0.00,,,0.00,Wunderground v.1.15,2013-06-19 21:14:00,
2013-06-19 17:19:00,64.5,42.7,29.31,ESE,123,3.0,3.0,45,0.00,,,0.00,Wunderground v.1.15,2013-06-19 21:19:00,
2013-06-19 17:29:00,65.7,44.9,29.31,NE,53,3.0,3.0,47,0.00,,,0.00,Wunderground v.1.15,2013-06-19 21:29:00,
2013-06-19 17:34:00,67.0,44.9,29.31,NE,38,1.0,3.0,45,0.00,,,0.00,Wunderground v.1.15,2013-06-19 21:34:00,
2013-06-19 17:39:00,68.0,44.7,29.31,NE,38,1.0,1.0,43,0.00,,,0.00,Wunderground v.1.15,2013-06-19 21:39:00,
2013-06-19 17:44:00,67.8,45.7,29.31,ESE,109,1.0,7.0,45,0.00,,,0.00,Wunderground v.1.15,2013-06-19 21:44:00,
2013-06-19 17:49:00,65.4,44.6,29.31,ESE,123,4.0,5.0,47,0.00,,,0.00,Wunderground v.1.15,2013-06-19 21:49:00,
2013-06-19 17:55:00,64.4,43.7,29.31,SE,126,5.0,5.0,47,0.00,,,0.00,Wunderground v.1.15,2013-06-19 21:55:00,
2013-06-19 18:00:00,65.0,43.7,29.31,NE,51,4.0,4.0,46,0.00,,,0.00,Wunderground v.1.15,2013-06-19 22:00:00,
2013-06-19 18:05:00,65.4,43.5,29.31,NE,51,1.0,4.0,45,0.00,,,0.00,Wunderground v.1.15,2013-06-19 22:05:00,
2013-06-19 18:10:00,65.2,43.9,29.31,NE,51,0.0,0.0,46,0.00,,,0.00,Wunderground v.1.15,2013-06-19 22:10:00,
2013-06-19 18:15:00,65.3,44.0,29.31,NE,51,0.0,0.0,46,0.00,,,0.00,Wunderground v.1.15,2013-06-19 22:15:00,
2013-06-19 18:20:00,66.4,46.7,29.31,NE,51,0.0,0.0,49,0.00,,,0.00,Wunderground v.1.15,2013-06-19 22:20:00,
2013-06-19 18:30:00,65.2,44.5,29.31,ESE,112,1.0,1.0,47,0.00,,,0.00,Wunderground v.1.15,2013-06-19 22:30:00,
2013-06-19 18:35:00,64.7,45.1,29.30,ESE,113,1.0,6.0,49,0.00,,,0.00,Wunderground v.1.15,2013-06-19 22:35:00,
2013-06-19 18:40:00,64.3,43.1,29.30,ESE,113,1.0,1.0,46,0.00,,,0.00,Wunderground v.1.15,2013-06-19 22:40:00,
2013-06-19 18:45:00,64.6,45.0,29.31,ESE,107,1.0,1.0,49,0.00,,,0.00,Wunderground v.1.15,2013-06-19 22:45:00,
2013-06-19 18:50:00,65.5,44.2,29.31,ESE,107,0.0,0.0,46,0.00,,,0.00,Wunderground v.1.15,2013-06-19 22:50:00,
2013-06-19 18:55:00,66.2,45.4,29.30,ESE,107,0.0,0.0,47,0.00,,,0.00,Wunderground v.1.15,2013-06-19 22:55:00,
2013-06-19 19:05:00,66.3,44.3,29.31,ESE,107,0.0,0.0,45,0.00,,,0.00,Wunderground v.1.15,2013-06-19 23:05:00,
2013-06-19 19:10:00,66.5,45.1,29.31,ESE,107,0.0,0.0,46,0.00,,,0.00,Wunderground v.1.15,2013-06-19 23:10:00,
2013-06-19 19:15:00,66.4,44.4,29.31,ESE,107,0.0,1.0,45,0.00,,,0.00,Wunderground v.1.15,2013-06-19 23:15:00,
2013-06-19 19:20:00,66.8,45.9,29.31,ESE,107,0.0,0.0,47,0.00,,,0.00,Wunderground v.1.15,2013-06-19 23:20:00,
2013-06-19 19:25:00,66.9,45.4,29.32,ESE,107,0.0,0.0,46,0.00,,,0.00,Wunderground v.1.15,2013-06-19 23:25:00,
2013-06-19 19:34:00,66.6,46.8,29.31,ESE,107,0.0,0.0,49,0.00,,,0.00,Wunderground v.1.15,2013-06-19 23:34:00,
2013-06-19 19:39:00,65.5,45.3,29.31,ESE,107,0.0,0.0,48,0.00,,,0.00,Wunderground v.1.15,2013-06-19 23:39:00,
2013-06-19 19:44:00,65.0,44.3,29.32,ESE,107,0.0,0.0,47,0.00,,,0.00,Wunderground v.1.15,2013-06-19 23:44:00,
2013-06-19 19:49:00,64.8,44.6,29.32,ESE,107,0.0,0.0,48,0.00,,,0.00,Wunderground v.1.15,2013-06-19 23:49:00,
2013-06-19 19:54:00,64.7,44.5,29.32,ESE,107,0.0,0.0,48,0.00,,,0.00,Wunderground v.1.15,2013-06-19 23:54:00,
2013-06-19 19:59:00,64.7,44.0,29.32,ESE,107,0.0,0.0,47,0.00,,,0.00,Wunderground v.1.15,2013-06-19 23:59:00,
2013-06-19 20:09:00,64.4,44.8,29.32,ESE,107,0.0,0.0,49,0.00,,,0.00,Wunderground v.1.15,2013-06-20 00:09:00,
2013-06-19 20:14:00,63.7,44.2,29.31,ESE,107,0.0,0.0,49,0.00,,,0.00,Wunderground v.1.15,2013-06-20 00:14:00,
2013-06-19 20:19:00,63.0,45.1,29.31,ESE,107,0.0,0.0,52,0.00,,,0.00,Wunderground v.1.15,2013-06-20 00:19:00,
2013-06-19 20:24:00,62.6,45.7,29.31,ESE,107,0.0,0.0,54,0.00,,,0.00,Wunderground v.1.15,2013-06-20 00:24:00,
2013-06-19 20:29:00,62.4,45.0,29.31,ESE,107,0.0,0.0,53,0.00,,,0.00,Wunderground v.1.15,2013-06-20 00:29:00,
2013-06-19 20:39:00,62.2,45.3,29.32,ESE,107,0.0,0.0,54,0.00,,,0.00,Wunderground v.1.15,2013-06-20 00:39:00,
2013-06-19 20:44:00,62.0,45.6,29.32,ESE,107,0.0,0.0,55,0.00,,,0.00,Wunderground v.1.15,2013-06-20 00:44:00,
2013-06-19 20:49:00,61.9,46.0,29.32,ESE,106,0.0,0.0,56,0.00,,,0.00,Wunderground v.1.15,2013-06-20 00:49:00,
2013-06-19 20:54:00,61.7,46.3,29.32,ESE,106,0.0,0.0,57,0.00,,,0.00,Wunderground v.1.15,2013-06-20 00:54:00,
2013-06-19 20:59:00,61.5,46.1,29.32,ESE,106,0.0,0.0,57,0.00,,,0.00,Wunderground v.1.15,2013-06-20 00:59:00,
2013-06-19 21:04:00,61.3,49.0,29.32,ESE,106,0.0,0.0,64,0.00,,,0.00,Wunderground v.1.15,2013-06-20 01:04:00,
2013-06-19 21:14:00,60.0,47.4,29.32,ESE,106,0.0,0.0,63,0.00,,,0.00,Wunderground v.1.15,2013-06-20 01:14:00,
2013-06-19 21:19:00,59.7,47.5,29.32,ESE,106,0.0,0.0,64,0.00,,,0.00,Wunderground v.1.15,2013-06-20 01:19:00,
2013-06-19 21:24:00,59.5,48.5,29.32,ESE,106,0.0,0.0,67,0.00,,,0.00,Wunderground v.1.15,2013-06-20 01:24:00,
2013-06-19 21:29:00,59.1,48.5,29.32,ESE,106,0.0,0.0,68,0.00,,,0.00,Wunderground v.1.15,2013-06-20 01:29:00,
2013-06-19 21:34:00,58.8,49.0,29.33,ESE,106,0.0,0.0,70,0.00,,,0.00,Wunderground v.1.15,2013-06-20 01:34:00,
2013-06-19 21:40:00,58.4,49.0,29.33,ESE,106,0.0,0.0,71,0.00,,,0.00,Wunderground v.1.15,2013-06-20 01:40:00,
2013-06-19 21:49:00,57.8,49.6,29.33,ESE,106,0.0,0.0,74,0.00,,,0.00,Wunderground v.1.15,2013-06-20 01:49:00,
2013-06-19 21:54:00,57.6,49.7,29.33,ESE,106,0.0,0.0,75,0.00,,,0.00,Wunderground v.1.15,2013-06-20 01:54:00,
2013-06-19 21:59:00,57.0,48.4,29.34,ESE,106,0.0,0.0,73,0.00,,,0.00,Wunderground v.1.15,2013-06-20 01:59:00,
2013-06-19 22:04:00,56.9,48.7,29.34,ESE,106,0.0,0.0,74,0.00,,,0.00,Wunderground v.1.15,2013-06-20 02:04:00,
2013-06-19 22:09:00,56.8,49.3,29.34,ESE,106,0.0,0.0,76,0.00,,,0.00,Wunderground v.1.15,2013-06-20 02:09:00,
2013-06-19 22:15:00,56.6,48.8,29.34,ESE,106,0.0,0.0,75,0.00,,,0.00,Wunderground v.1.15,2013-06-20 02:15:00,
2013-06-19 22:20:00,56.4,49.3,29.34,ESE,106,0.0,0.0,77,0.00,,,0.00,Wunderground v.1.15,2013-06-20 02:20:00,
2013-06-19 22:25:00,56.4,49.6,29.34,ESE,106,0.0,0.0,78,0.00,,,0.00,Wunderground v.1.15,2013-06-20 02:25:00,
2013-06-19 22:30:00,56.2,49.1,29.34,ESE,106,0.0,0.0,77,0.00,,,0.00,Wunderground v.1.15,2013-06-20 02:30:00,
2013-06-19 22:35:00,56.1,49.3,29.34,ESE,106,0.0,0.0,78,0.00,,,0.00,Wunderground v.1.15,2013-06-20 02:35:00,
2013-06-19 22:40:00,55.9,49.5,29.34,ESE,106,0.0,0.0,79,0.00,,,0.00,Wunderground v.1.15,2013-06-20 02:40:00,
2013-06-19 22:49:00,55.0,48.9,29.35,ESE,106,0.0,0.0,80,0.00,,,0.00,Wunderground v.1.15,2013-06-20 02:49:00,
2013-06-19 22:54:00,54.8,49.4,29.35,ESE,106,0.0,0.0,82,0.00,,,0.00,Wunderground v.1.15,2013-06-20 02:54:00,
2013-06-19 22:59:00,54.5,48.5,29.35,ESE,106,0.0,0.0,80,0.00,,,0.00,Wunderground v.1.15,2013-06-20 02:59:00,
2013-06-19 23:04:00,54.5,48.8,29.35,ESE,106,0.0,0.0,81,0.00,,,0.00,Wunderground v.1.15,2013-06-20 03:04:00,
2013-06-19 23:10:00,54.4,48.7,29.35,ESE,106,0.0,0.0,81,0.00,,,0.00,Wunderground v.1.15,2013-06-20 03:10:00,
2013-06-19 23:19:00,54.0,48.6,29.35,ESE,106,0.0,0.0,82,0.00,,,0.00,Wunderground v.1.15,2013-06-20 03:19:00,
2013-06-19 23:24:00,53.9,48.2,29.35,ESE,106,0.0,0.0,81,0.00,,,0.00,Wunderground v.1.15,2013-06-20 03:24:00,
2013-06-19 23:29:00,54.3,47.2,29.35,ESE,107,0.0,2.0,77,0.00,,,0.00,Wunderground v.1.15,2013-06-20 03:29:00,
2013-06-19 23:34:00,54.7,46.9,29.35,WSW,244,1.0,2.0,75,0.00,,,0.00,Wunderground v.1.15,2013-06-20 03:34:00,
2013-06-19 23:39:00,55.0,46.9,29.35,WSW,244,1.0,1.0,74,0.00,,,0.00,Wunderground v.1.15,2013-06-20 03:39:00,
2013-06-19 23:44:00,55.2,46.7,29.35,WSW,244,1.0,4.0,73,0.00,,,0.00,Wunderground v.1.15,2013-06-20 03:44:00,
2013-06-19 23:54:00,54.8,46.7,29.36,WSW,248,2.0,2.0,74,0.00,,,0.00,Wunderground v.1.15,2013-06-20 03:54:00,